Tracking 28125 objects as of 4-Oct-2023
HD Live streaming from Space Station
objects crossing your sky now

THORAD AGENA D DEB

Track THORAD AGENA D DEB now!
10-day predictions


NORAD ID: 10136
Int'l Code: 1970-025NQ
Perigee: 1,072.5 km
Apogee: 1,073.1 km
Inclination: 100.0 °
Period: 106.5 minutes
Semi major axis: 7443 km
RCS: 0.0546 m2 (small)
Launch date: April 8, 1970
Source: United States (US)
Launch site: AIR FORCE WESTERN TEST RANGE (AFWTR)

Note: This is SATELLITE DEBRIS
Your satellite tracking list
Your tracking list is empty




NASA's NSSDC Master Catalog

Two Line Element Set (TLE):
1 10136U 70025NQ  23276.84762625  .00000088  00000-0  20444-3 0  9998
2 10136 100.0235 220.8642 0000402 278.9236 144.9156 13.51801487637083
Source of the keplerian elements: AFSPC